This is the latest recevied weather packets stored in our database for station/object HB9SZU-7. If no packets are shown the sender has not sent any weather packets the latest 10 day(s).
| Time | Temp. | Humidity | Pressure | Rain* | Wind** | Luminosity | Snow |
|---|---|---|---|---|---|---|---|
| 1777903310 | 17.22° C | 51% | 937.1 hPa | - | - | - | - |
| 1777902350 | 17.22° C | 49% | 937.2 hPa | - | - | - | - |
| 1777901390 | 17.22° C | 50% | 937.4 hPa | - | - | - | - |
| 1777900430 | 17.22° C | 50% | 937.4 hPa | - | - | - | - |
| 1777899470 | 17.22° C | 50% | 937.5 hPa | - | - | - | - |
| 1777898509 | 17.22° C | 51% | 937.6 hPa | - | - | - | - |
| 1777897550 | 16.67° C | 50% | 937.6 hPa | - | - | - | - |
| 1777896590 | 17.22° C | 48% | 937.5 hPa | - | - | - | - |
| 1777895629 | 17.22° C | 48% | 937.4 hPa | - | - | - | - |
| 1777894670 | 17.22° C | 47% | 937.6 hPa | - | - | - | - |
| 1777893710 | 17.78° C | 49% | 937.7 hPa | - | - | - | - |
| 1777892750 | 17.78° C | 48% | 937.7 hPa | - | - | - | - |
| 1777891790 | 17.78° C | 48% | 938 hPa | - | - | - | - |
| 1777890830 | 17.78° C | 48% | 938 hPa | - | - | - | - |
| 1777889869 | 17.22° C | 48% | 938 hPa | - | - | - | - |
| 1777888910 | 16.11° C | 50% | 938.1 hPa | - | - | - | - |
| 1777887949 | 16.11° C | 52% | 938.2 hPa | - | - | - | - |
| 1777886990 | 15.56° C | 55% | 938.2 hPa | - | - | - | - |
| 1777886030 | 15° C | 55% | 938.2 hPa | - | - | - | - |
| 1777885069 | 15° C | 54% | 938.3 hPa | - | - | - | - |
| 1777884109 | 14.44° C | 57% | 938.2 hPa | - | - | - | - |
| 1777883149 | 14.44° C | 58% | 938.2 hPa | - | - | - | - |
| 1777882189 | 14.44° C | 56% | 938.1 hPa | - | - | - | - |
| 1777881230 | 14.44° C | 56% | 937.8 hPa | - | - | - | - |
| 1777880270 | 14.44° C | 54% | 937.7 hPa | - | - | - | - |
* Rain since midnight (hover to see other rain measurements)
** Current wind speed in m/s (hover to see current wind gust speed)